Location: Gälforsberget
(66.6500°N, 22.4167°E)
Time: 15:00:22
(UTC+00:00)

Cosmos 1818 - Pass Details

Date: 11 April 2026
Orbit: 774 x 797 km, 65.0° (Epoch: 16 May)

Event Time Altitude Azimuth Distance (km) Brightness Sun altitude
Rises 20:15:17 0° 270° (W) 3,298 7.3 -10.9°
Reaches altitude 10° 20:17:42 10° 269° (W) 2,371 6.5 -11.0°
Maximum altitude 20:23:09 76° 185° (S) 828 3.6 -11.3°
Drops below altitude 10° 20:28:37 10° 101° (E) 2,377 5.7 -11.6°
Enters shadow 20:30:29 - 100° (E) 3,087 6.2 -11.7°
